{"data":{"norad_id":61768,"epoch":"2026-09-22T21:55:48.732672Z","epoch_age_seconds":93738,"freshness":"FRESH","line1":"1 61768U 24199AK  26265.91375848  .00018647  00000+0  29251-3 0  9996","line2":"2 61768  97.2790 142.0650 0002908 307.9921  52.1070 15.53731125149497","mean_motion":15.53731125,"eccentricity":0.0002908,"inclination_deg":97.279,"raan_deg":142.065,"arg_perigee_deg":307.9921,"mean_anomaly_deg":52.107,"bstar":0.00029251,"rev_number":14949,"period_min":92.680128294398,"perigee_km":403.87082080046,"apogee_km":407.8163839188,"semimajor_km":6783.9806023596,"source":"CELESTRAK","updated_at":"2026-09-23T09:00:21.033439Z"}}